When you browse on this site, cookies collect data to enhance your experience and personalize the content and advertising you see.
Visit our Privacy Policy to learn more. By continuing to use the site, you agree to this use of cookies and data.
  • en Suisse
  • Liste des pays
  • À 7 jours
  • Température de l'eau
  • Carte météo
  • Widgets météo
  • user-avatar
    Se connecter

    Météo par heure à Morpeth

    Ce jour, 11 Décembre, Mercredi

    Heure Température Précipitation Vent Pression Humidité
    00:00 +2°C° 0 mm 8 m/s 742 mmHg 73%
    01:00 +2°C° 0 mm 8 m/s 742 mmHg 72%
    02:00 +1°C° 0 mm 8 m/s 743 mmHg 71%
    03:00 +1°C° 0 mm 8 m/s 743 mmHg 71%
    04:00 +1°C° 0 mm 8 m/s 743 mmHg 72%
    05:00 +1°C° 0 mm 8 m/s 743 mmHg 72%
    06:00 +1°C° 0 mm 8 m/s 742 mmHg 73%
    07:00 +1°C° 0.1 mm 8 m/s 742 mmHg 77%
    08:00 +1°C° 0.1 mm 9 m/s 742 mmHg 80%
    09:00 +1°C° 0.1 mm 9 m/s 742 mmHg 83%
    10:00 +2°C° 0 mm 8 m/s 741 mmHg 79%
    11:00 +2°C° 0 mm 8 m/s 741 mmHg 76%
    12:00 +2°C° 0 mm 8 m/s 741 mmHg 72%
    13:00 +2°C° 0 mm 8 m/s 741 mmHg 73%
    14:00 +3°C° 0 mm 7 m/s 741 mmHg 74%
    15:00 +2°C° 0 mm 7 m/s 741 mmHg 74%
    16:00 +2°C° 0 mm 7 m/s 741 mmHg 76%
    17:00 +1°C° 0 mm 6 m/s 741 mmHg 77%
    18:00 +1°C° 0 mm 6 m/s 741 mmHg 78%
    19:00 +1°C° 0 mm 6 m/s 741 mmHg 78%
    20:00 +1°C° 0 mm 6 m/s 741 mmHg 77%
    21:00 +1°C° 0 mm 6 m/s 742 mmHg 77%
    22:00 +1°C° 0 mm 6 m/s 742 mmHg 78%
    23:00 +1°C° 0 mm 6 m/s 742 mmHg 79%

    Demain, 12 Décembre, Jeudi

    Heure Température Précipitation Vent Pression Humidité
    00:00 +1°C° 0 mm 5 m/s 742 mmHg 80%
    01:00 0°C° 0 mm 5 m/s 742 mmHg 81%
    02:00 0°C° 0 mm 5 m/s 741 mmHg 82%
    03:00 0°C° 0 mm 5 m/s 741 mmHg 83%
    04:00 0°C° 0 mm 5 m/s 741 mmHg 83%
    05:00 0°C° 0 mm 5 m/s 740 mmHg 83%
    06:00 0°C° 0 mm 5 m/s 740 mmHg 82%
    07:00 0°C° 0 mm 5 m/s 739 mmHg 83%
    08:00 0°C° 0 mm 5 m/s 739 mmHg 83%
    09:00 0°C° 0 mm 5 m/s 738 mmHg 83%
    10:00 +1°C° 0 mm 6 m/s 737 mmHg 81%
    11:00 +1°C° 0 mm 6 m/s 736 mmHg 79%
    12:00 0°C° 0 mm 7 m/s 735 mmHg 78%
    13:00 0°C° 0.2 mm 7 m/s 733 mmHg 83%
    14:00 0°C° 0.2 mm 7 m/s 732 mmHg 89%
    15:00 0°C° 0.2 mm 7 m/s 730 mmHg 94%
    16:00 0°C° 1.1 mm 8 m/s 729 mmHg 94%
    17:00 +1°C° 1.1 mm 8 m/s 728 mmHg 94%
    18:00 +1°C° 1.1 mm 9 m/s 726 mmHg 95%
    19:00 +1°C° 1.1 mm 8 m/s 725 mmHg 95%
    20:00 +1°C° 1.1 mm 8 m/s 724 mmHg 95%
    21:00 +3°C° 1.1 mm 7 m/s 723 mmHg 95%
    22:00 +3°C° 0.7 mm 6 m/s 723 mmHg 95%
    23:00 +3°C° 0.7 mm 5 m/s 722 mmHg 96%

    Après-demain, 13 Décembre, Vendredi

    Heure Température Précipitation Vent Pression Humidité
    00:00 +4°C° 0.7 mm 4 m/s 722 mmHg 97%
    01:00 +4°C° 0.5 mm 4 m/s 722 mmHg 97%
    02:00 +4°C° 0.5 mm 4 m/s 722 mmHg 97%
    03:00 +4°C° 0.5 mm 3 m/s 722 mmHg 97%
    04:00 +4°C° 0.6 mm 4 m/s 722 mmHg 96%
    05:00 +4°C° 0.6 mm 4 m/s 723 mmHg 96%
    06:00 +3°C° 0.6 mm 5 m/s 724 mmHg 95%
    07:00 +3°C° 0.5 mm 5 m/s 725 mmHg 95%
    08:00 +4°C° 0.5 mm 4 m/s 726 mmHg 94%
    09:00 +4°C° 0.5 mm 4 m/s 727 mmHg 93%
    10:00 +4°C° 0.1 mm 4 m/s 728 mmHg 92%
    11:00 +4°C° 0.1 mm 4 m/s 728 mmHg 91%
    12:00 +4°C° 0.1 mm 3 m/s 729 mmHg 90%
    13:00 +4°C° 0 mm 3 m/s 729 mmHg 91%
    14:00 +4°C° 0 mm 3 m/s 729 mmHg 91%
    15:00 +4°C° 0 mm 3 m/s 728 mmHg 91%
    16:00 +4°C° 0.2 mm 4 m/s 728 mmHg 91%
    17:00 +4°C° 0.2 mm 4 m/s 728 mmHg 92%
    18:00 +3°C° 0.2 mm 5 m/s 727 mmHg 92%
    19:00 +3°C° 0.2 mm 5 m/s 727 mmHg 90%
    20:00 +2°C° 0.2 mm 5 m/s 726 mmHg 88%
    21:00 +2°C° 0.2 mm 5 m/s 726 mmHg 86%
    22:00 +3°C° 0 mm 4 m/s 725 mmHg 86%
    23:00 +3°C° 0 mm 4 m/s 724 mmHg 87%

    14 Décembre, Samedi

    Heure Température Précipitation Vent Pression Humidité
    00:00 +2°C° 0 mm 3 m/s 724 mmHg 87%
    01:00 +1°C° 0.2 mm 4 m/s 724 mmHg 89%
    02:00 +1°C° 0.2 mm 4 m/s 723 mmHg 92%
    03:00 +1°C° 0.2 mm 5 m/s 723 mmHg 94%
    04:00 +1°C° 0.3 mm 6 m/s 724 mmHg 88%
    05:00 0°C° 0.3 mm 7 m/s 724 mmHg 82%
    06:00 0°C° 0.3 mm 9 m/s 724 mmHg 76%
    07:00 0°C° 0 mm 9 m/s 725 mmHg 74%
    08:00 0°C° 0 mm 10 m/s 725 mmHg 72%
    09:00 -2°C° 0 mm 10 m/s 725 mmHg 70%
    10:00 -1°C° 0 mm 11 m/s 725 mmHg 69%
    11:00 -1°C° 0 mm 11 m/s 725 mmHg 68%
    12:00 -1°C° 0 mm 11 m/s 725 mmHg 67%
    13:00 -1°C° 0 mm 12 m/s 725 mmHg 70%
    14:00 -1°C° 0 mm 12 m/s 725 mmHg 74%
    15:00 -1°C° 0 mm 13 m/s 724 mmHg 77%
    16:00 -1°C° 0 mm 14 m/s 724 mmHg 73%
    17:00 -1°C° 0 mm 15 m/s 725 mmHg 68%
    18:00 -1°C° 0 mm 15 m/s 725 mmHg 64%
    19:00 -1°C° 0 mm 15 m/s 725 mmHg 65%
    20:00 -1°C° 0 mm 14 m/s 726 mmHg 65%
    21:00 -1°C° 0 mm 14 m/s 726 mmHg 66%
    22:00 -1°C° 0 mm 13 m/s 727 mmHg 66%
    23:00 -2°C° 0 mm 12 m/s 727 mmHg 67%

    15 Décembre, Dimanche

    Heure Température Précipitation Vent Pression Humidité
    00:00 -2°C° 0 mm 11 m/s 728 mmHg 68%
    01:00 -2°C° 0 mm 10 m/s 728 mmHg 68%
    02:00 -2°C° 0 mm 10 m/s 728 mmHg 69%
    03:00 -1°C° 0 mm 9 m/s 727 mmHg 69%
    04:00 -1°C° 0 mm 9 m/s 728 mmHg 70%
    05:00 -1°C° 0 mm 9 m/s 728 mmHg 71%
    06:00 -1°C° 0 mm 9 m/s 728 mmHg 71%
    07:00 -1°C° 0 mm 9 m/s 728 mmHg 69%
    08:00 -1°C° 0 mm 9 m/s 729 mmHg 67%
    09:00 0°C° 0 mm 9 m/s 729 mmHg 65%
    10:00 0°C° 0 mm 10 m/s 730 mmHg 65%
    11:00 +1°C° 0 mm 10 m/s 730 mmHg 64%
    12:00 +1°C° 0 mm 11 m/s 730 mmHg 64%
    13:00 +1°C° 0.2 mm 11 m/s 731 mmHg 67%
    14:00 0°C° 0.2 mm 12 m/s 731 mmHg 70%
    15:00 0°C° 0.2 mm 12 m/s 732 mmHg 73%
    16:00 +1°C° 0.2 mm 10 m/s 733 mmHg 74%
    17:00 0°C° 0.2 mm 9 m/s 733 mmHg 75%
    18:00 0°C° 0.2 mm 7 m/s 734 mmHg 77%
    19:00 0°C° 0 mm 7 m/s 735 mmHg 78%
    20:00 0°C° 0 mm 7 m/s 736 mmHg 80%
    21:00 0°C° 0 mm 7 m/s 736 mmHg 82%
    22:00 0°C° 0 mm 7 m/s 737 mmHg 81%
    23:00 0°C° 0 mm 7 m/s 738 mmHg 81%

    16 Décembre, Lundi

    Heure Température Précipitation Vent Pression Humidité
    00:00 +1°C° 0 mm 8 m/s 738 mmHg 80%
    01:00 +1°C° 0 mm 8 m/s 739 mmHg 80%
    02:00 +1°C° 0 mm 8 m/s 739 mmHg 80%
    03:00 +1°C° 0 mm 8 m/s 740 mmHg 80%
    04:00 0°C° 0 mm 7 m/s 740 mmHg 80%
    05:00 0°C° 0 mm 7 m/s 741 mmHg 79%
    06:00 0°C° 0 mm 7 m/s 741 mmHg 79%
    07:00 +1°C° 0 mm 6 m/s 742 mmHg 80%
    08:00 0°C° 0 mm 5 m/s 742 mmHg 80%
    09:00 0°C° 0 mm 4 m/s 743 mmHg 81%
    10:00 +1°C° 0 mm 4 m/s 743 mmHg 80%
    11:00 +1°C° 0 mm 4 m/s 743 mmHg 80%
    12:00 +3°C° 0 mm 3 m/s 743 mmHg 80%
    13:00 +2°C° 0.4 mm 3 m/s 742 mmHg 85%
    14:00 +2°C° 0.4 mm 3 m/s 742 mmHg 90%
    15:00 +2°C° 0.4 mm 2 m/s 741 mmHg 96%
    16:00 +1°C° 1.5 mm 3 m/s 741 mmHg 96%
    17:00 +1°C° 1.5 mm 3 m/s 741 mmHg 97%
    18:00 +1°C° 1.5 mm 3 m/s 741 mmHg 97%
    19:00 0°C° 0.2 mm 4 m/s 742 mmHg 96%
    20:00 0°C° 0.2 mm 4 m/s 742 mmHg 95%
    21:00 0°C° 0.2 mm 4 m/s 742 mmHg 94%
    22:00 -1°C° 0 mm 4 m/s 743 mmHg 92%
    23:00 -1°C° 0 mm 4 m/s 743 mmHg 90%
    Voir plus